42VI EVRA-EETN

Flight info

Callsign 42VI
Flight time 1h 26m
Altitude 9000
Route RSK DCT AMI
Aircraft DA42/L-SDFGRY/C

Departure

Time 2026-04-29 15:16
Airport Riga International Airport (EVRA)

Arrival

Time 2026-04-29 16:42
Airport Lennart Meri Tallinn Airport (EETN)
Time Latitude Longitude Altitude Speed Heading
2026-04-29 15:05 56.91414 23.97529 38 ft 0 kts 275°
2026-04-29 15:13 56.91415 23.97509 38 ft 5 kts 280°
2026-04-29 15:13 56.91418 23.97435 38 ft 8 kts 275°
2026-04-29 15:13 56.91414 23.97352 38 ft 5 kts 197°
2026-04-29 15:13 56.91379 23.97347 38 ft 6 kts 187°
2026-04-29 15:14 56.91342 23.97308 38 ft 7 kts 234°
2026-04-29 15:14 56.91306 23.97228 38 ft 9 kts 230°
2026-04-29 15:14 56.91272 23.97150 38 ft 6 kts 233°
2026-04-29 15:14 56.91259 23.97078 39 ft 6 kts 260°
2026-04-29 15:15 56.91264 23.97006 39 ft 5 kts 290°
2026-04-29 15:15 56.91276 23.96951 40 ft 5 kts 321°
2026-04-29 15:15 56.91325 23.96940 41 ft 9 kts
2026-04-29 15:15 56.91420 23.96959 40 ft 34 kts
2026-04-29 15:16 56.91825 23.97024 45 ft 77 kts
2026-04-29 15:16 56.92379 23.97101 230 ft 83 kts
2026-04-29 15:16 56.92999 23.97206 423 ft 94 kts
2026-04-29 15:16 56.93695 23.97332 655 ft 105 kts
2026-04-29 15:17 56.94460 23.97473 858 ft 115 kts
2026-04-29 15:17 56.95169 23.98222 1087 ft 127 kts 47°
2026-04-29 15:17 56.95522 23.99742 1307 ft 130 kts 65°
2026-04-29 15:17 56.95762 24.01358 1510 ft 135 kts 80°
2026-04-29 15:18 56.95745 24.03106 1740 ft 139 kts 86°
2026-04-29 15:18 56.95705 24.04892 1943 ft 141 kts 85°
2026-04-29 15:18 56.95658 24.06733 1985 ft 149 kts 86°
2026-04-29 15:18 56.95600 24.08648 1976 ft 154 kts 88°
2026-04-29 15:19 56.95693 24.10549 1973 ft 147 kts 63°
2026-04-29 15:19 56.96118 24.12238 1993 ft 147 kts 57°
2026-04-29 15:19 56.96581 24.13920 1984 ft 148 kts 56°
2026-04-29 15:19 56.97044 24.15620 1985 ft 150 kts 57°
2026-04-29 15:20 56.97510 24.17338 1983 ft 149 kts 57°
2026-04-29 15:20 56.97969 24.19029 1983 ft 147 kts 57°
2026-04-29 15:20 56.98428 24.20714 1993 ft 149 kts 57°
2026-04-29 15:20 56.98890 24.22420 1997 ft 150 kts 57°
2026-04-29 15:21 56.99367 24.24124 1986 ft 153 kts 57°
2026-04-29 15:21 56.99856 24.25849 1983 ft 151 kts 56°
2026-04-29 15:21 57.00328 24.27570 1982 ft 150 kts 56°
2026-04-29 15:21 57.00784 24.29302 1978 ft 152 kts 58°
2026-04-29 15:22 57.01311 24.30913 1993 ft 144 kts 43°
2026-04-29 15:22 57.02006 24.32239 1978 ft 142 kts 38°
2026-04-29 15:22 57.02684 24.33502 1984 ft 137 kts 39°
2026-04-29 15:22 57.03355 24.34717 1986 ft 133 kts 33°
2026-04-29 15:23 57.04145 24.35546 1978 ft 128 kts 18°
2026-04-29 15:23 57.04958 24.36238 1989 ft 132 kts 24°
2026-04-29 15:23 57.05662 24.37328 2083 ft 132 kts 44°
2026-04-29 15:23 57.06183 24.38700 2301 ft 131 kts 51°
2026-04-29 15:24 57.06433 24.39428 2410 ft 130 kts 52°
2026-04-29 15:24 57.06929 24.40903 2641 ft 139 kts 51°
2026-04-29 15:24 57.07446 24.42447 2857 ft 144 kts 52°
2026-04-29 15:24 57.07955 24.43988 3056 ft 141 kts 52°
2026-04-29 15:25 57.08455 24.45527 3262 ft 140 kts 53°
2026-04-29 15:25 57.08951 24.47048 3478 ft 140 kts 53°
2026-04-29 15:25 57.09467 24.48616 3474 ft 143 kts 53°
2026-04-29 15:25 57.09980 24.50186 3481 ft 145 kts 52°
2026-04-29 15:26 57.10518 24.51817 3488 ft 153 kts 53°
2026-04-29 15:26 57.11071 24.53503 3481 ft 156 kts 53°
2026-04-29 15:26 57.11634 24.55220 3474 ft 156 kts 53°
2026-04-29 15:26 57.12182 24.56906 3473 ft 156 kts 53°
2026-04-29 15:27 57.12740 24.58616 3480 ft 157 kts 53°
2026-04-29 15:27 57.13310 24.60355 3472 ft 158 kts 53°
2026-04-29 15:27 57.13872 24.62073 3475 ft 155 kts 53°
2026-04-29 15:27 57.14427 24.63769 3476 ft 154 kts 53°
2026-04-29 15:28 57.14977 24.65463 3479 ft 154 kts 53°
2026-04-29 15:28 57.15336 24.66588 3475 ft 155 kts 54°
2026-04-29 15:28 57.16087 24.68880 3490 ft 157 kts 54°
2026-04-29 15:28 57.16657 24.70621 3471 ft 159 kts 53°
2026-04-29 15:29 57.17225 24.72371 3472 ft 159 kts 53°
2026-04-29 15:29 57.18349 24.75814 3463 ft 157 kts 53°
2026-04-29 15:30 57.19456 24.79252 3464 ft 155 kts 52°
2026-04-29 15:30 57.20011 24.80968 3466 ft 156 kts 53°
2026-04-29 15:30 57.20566 24.82683 3471 ft 155 kts 53°
2026-04-29 15:30 57.21120 24.84397 3470 ft 155 kts 54°
2026-04-29 15:31 57.21633 24.85973 3468 ft 155 kts 53°
2026-04-29 15:31 57.22185 24.87684 3468 ft 154 kts 53°
2026-04-29 15:31 57.22734 24.89385 3465 ft 153 kts 53°
2026-04-29 15:31 57.23280 24.91078 3465 ft 155 kts 53°
2026-04-29 15:32 57.23832 24.92794 3464 ft 156 kts 54°
2026-04-29 15:32 57.24389 24.94522 3468 ft 157 kts 53°
2026-04-29 15:32 57.24938 24.96230 3469 ft 156 kts 53°
2026-04-29 15:32 57.25493 24.97956 3469 ft 156 kts 53°
2026-04-29 15:33 57.26043 24.99675 3467 ft 155 kts 53°
2026-04-29 15:33 57.26593 25.01381 3464 ft 154 kts 54°
2026-04-29 15:33 57.27141 25.03090 3466 ft 154 kts 53°
2026-04-29 15:33 57.27692 25.04802 3461 ft 155 kts 53°
2026-04-29 15:34 57.28243 25.06527 3464 ft 156 kts 54°
2026-04-29 15:34 57.28796 25.08256 3458 ft 156 kts 53°
2026-04-29 15:34 57.29325 25.09912 3459 ft 155 kts 54°
2026-04-29 15:34 57.29708 25.11113 3468 ft 156 kts 54°
2026-04-29 15:35 57.30301 25.12863 3463 ft 154 kts 46°
2026-04-29 15:35 57.31105 25.14111 3462 ft 150 kts 24°
2026-04-29 15:35 57.32066 25.14681 3456 ft 146 kts
2026-04-29 15:35 57.33077 25.14549 3459 ft 143 kts 345°
2026-04-29 15:36 57.34035 25.14133 3460 ft 144 kts 345°
2026-04-29 15:36 57.35017 25.13706 3460 ft 146 kts 345°
2026-04-29 15:36 57.36002 25.13270 3460 ft 145 kts 345°
2026-04-29 15:36 57.36983 25.12836 3461 ft 145 kts 345°
2026-04-29 15:37 57.37959 25.12405 3456 ft 144 kts 345°
2026-04-29 15:37 57.38932 25.11981 3461 ft 143 kts 345°
2026-04-29 15:37 57.39901 25.11555 3458 ft 144 kts 345°
2026-04-29 15:37 57.40879 25.11128 3461 ft 145 kts 345°
2026-04-29 15:38 57.41528 25.10840 3461 ft 145 kts 345°
2026-04-29 15:38 57.42509 25.10406 3462 ft 146 kts 345°
2026-04-29 15:38 57.43496 25.09968 3457 ft 147 kts 345°
2026-04-29 15:38 57.44488 25.09528 3449 ft 146 kts 345°
2026-04-29 15:39 57.45467 25.09095 3457 ft 144 kts 345°
2026-04-29 15:39 57.46444 25.08668 3452 ft 143 kts 345°
2026-04-29 15:39 57.47406 25.08240 3453 ft 142 kts 345°
2026-04-29 15:39 57.48360 25.07817 3456 ft 142 kts 345°
2026-04-29 15:40 57.49310 25.07402 3454 ft 142 kts 346°
2026-04-29 15:40 57.50276 25.06972 3457 ft 143 kts 345°
2026-04-29 15:40 57.51244 25.06536 3453 ft 143 kts 345°
2026-04-29 15:40 57.52211 25.06110 3456 ft 143 kts 346°
2026-04-29 15:41 57.53185 25.05681 3453 ft 143 kts 345°
2026-04-29 15:41 57.54156 25.05252 3453 ft 144 kts 345°
2026-04-29 15:41 57.55131 25.04814 3455 ft 144 kts 345°
2026-04-29 15:41 57.56104 25.04382 3448 ft 144 kts 345°
2026-04-29 15:42 57.57074 25.03948 3451 ft 144 kts 345°
2026-04-29 15:42 57.58051 25.03516 3449 ft 144 kts 346°
2026-04-29 15:42 57.59026 25.03083 3448 ft 144 kts 346°
2026-04-29 15:42 57.59999 25.02652 3453 ft 144 kts 346°
2026-04-29 15:43 57.60976 25.02219 3454 ft 144 kts 345°
2026-04-29 15:43 57.61957 25.01780 3449 ft 145 kts 346°
2026-04-29 15:43 57.62928 25.01347 3451 ft 145 kts 345°
2026-04-29 15:43 57.63912 25.00904 3447 ft 145 kts 346°
2026-04-29 15:44 57.64889 25.00468 3453 ft 144 kts 346°
2026-04-29 15:44 57.65867 25.00029 3452 ft 145 kts 346°
2026-04-29 15:44 57.66850 24.99592 3450 ft 145 kts 346°
2026-04-29 15:44 57.67831 24.99159 3449 ft 145 kts 346°
2026-04-29 15:45 57.68809 24.98717 3456 ft 145 kts 346°
2026-04-29 15:45 57.69787 24.98279 3452 ft 144 kts 346°
2026-04-29 15:45 57.70767 24.97836 3452 ft 145 kts 346°
2026-04-29 15:45 57.71733 24.97403 3449 ft 143 kts 346°
2026-04-29 15:46 57.72698 24.96973 3451 ft 142 kts 346°
2026-04-29 15:46 57.73660 24.96537 3449 ft 142 kts 346°
2026-04-29 15:46 57.74621 24.96110 3451 ft 141 kts 346°
2026-04-29 15:46 57.75581 24.95681 3455 ft 143 kts 346°
2026-04-29 15:47 57.76547 24.95246 3446 ft 143 kts 346°
2026-04-29 15:47 57.77515 24.94809 3445 ft 142 kts 346°
2026-04-29 15:47 57.78476 24.94376 3451 ft 142 kts 346°
2026-04-29 15:47 57.79438 24.93942 3449 ft 143 kts 346°
2026-04-29 15:48 57.80392 24.93513 3445 ft 142 kts 346°
2026-04-29 15:48 57.81356 24.93079 3448 ft 142 kts 346°
2026-04-29 15:48 57.82312 24.92649 3448 ft 142 kts 346°
2026-04-29 15:48 57.83277 24.92202 3446 ft 143 kts 345°
2026-04-29 15:49 57.84243 24.91753 3449 ft 143 kts 346°
2026-04-29 15:49 57.85215 24.91322 3448 ft 144 kts 346°
2026-04-29 15:49 57.86193 24.90900 3448 ft 145 kts 347°
2026-04-29 15:49 57.87161 24.90464 3443 ft 145 kts 346°
2026-04-29 15:50 57.88136 24.90021 3445 ft 143 kts 346°
2026-04-29 15:50 57.89103 24.89587 3447 ft 143 kts 346°
2026-04-29 15:50 57.90069 24.89149 3442 ft 142 kts 346°
2026-04-29 15:50 57.91026 24.88713 3447 ft 141 kts 346°
2026-04-29 15:51 57.91984 24.88273 3444 ft 142 kts 346°
2026-04-29 15:51 57.92944 24.87839 3443 ft 142 kts 346°
2026-04-29 15:51 57.93905 24.87402 3441 ft 142 kts 346°
2026-04-29 15:51 57.94863 24.86963 3446 ft 142 kts 346°
2026-04-29 15:52 57.95826 24.86523 3443 ft 143 kts 346°
2026-04-29 15:52 57.96791 24.86089 3444 ft 142 kts 346°
2026-04-29 15:52 57.97758 24.85650 3446 ft 144 kts 346°
2026-04-29 15:52 57.98735 24.85204 3447 ft 145 kts 346°
2026-04-29 15:53 57.99713 24.84758 3446 ft 144 kts 346°
2026-04-29 15:53 58.00673 24.84323 3441 ft 144 kts 347°
2026-04-29 15:53 58.01641 24.83878 3442 ft 143 kts 347°
2026-04-29 15:53 58.02610 24.83437 3446 ft 144 kts 347°
2026-04-29 15:54 58.03589 24.82991 3437 ft 144 kts 346°
2026-04-29 15:54 58.04559 24.82545 3443 ft 143 kts 347°
2026-04-29 15:54 58.05534 24.82100 3443 ft 144 kts 346°
2026-04-29 15:54 58.06513 24.81654 3439 ft 145 kts 347°
2026-04-29 15:55 58.07490 24.81211 3436 ft 144 kts 346°
2026-04-29 15:55 58.08461 24.80760 3438 ft 144 kts 347°
2026-04-29 15:55 58.09430 24.80316 3442 ft 143 kts 347°
2026-04-29 15:55 58.10399 24.79870 3444 ft 144 kts 347°
2026-04-29 15:56 58.11377 24.79421 3437 ft 144 kts 347°
2026-04-29 15:56 58.12350 24.78978 3440 ft 144 kts 347°
2026-04-29 15:56 58.13319 24.78534 3440 ft 143 kts 347°
2026-04-29 15:56 58.14276 24.78094 3437 ft 143 kts 346°
2026-04-29 15:57 58.15238 24.77652 3436 ft 142 kts 346°
2026-04-29 15:57 58.16200 24.77211 3443 ft 143 kts 346°
2026-04-29 15:57 58.17163 24.76759 3436 ft 142 kts 346°
2026-04-29 15:57 58.18123 24.76322 3435 ft 142 kts 346°
2026-04-29 15:58 58.19083 24.75883 3432 ft 142 kts 346°
2026-04-29 15:58 58.20047 24.75440 3434 ft 144 kts 346°
2026-04-29 15:58 58.21013 24.74993 3437 ft 142 kts 347°
2026-04-29 15:58 58.21978 24.74552 3443 ft 142 kts 346°
2026-04-29 15:59 58.22948 24.74101 3441 ft 145 kts 346°
2026-04-29 15:59 58.23934 24.73640 3436 ft 146 kts 346°
2026-04-29 15:59 58.24926 24.73185 3443 ft 147 kts 346°
2026-04-29 15:59 58.25919 24.72731 3441 ft 146 kts 346°
2026-04-29 16:00 58.26905 24.72267 3434 ft 146 kts 345°
2026-04-29 16:00 58.27889 24.71809 3429 ft 145 kts 346°
2026-04-29 16:00 58.28862 24.71362 3436 ft 143 kts 346°
2026-04-29 16:00 58.29827 24.70906 3447 ft 143 kts 345°
2026-04-29 16:01 58.30806 24.70455 3429 ft 145 kts 346°
2026-04-29 16:01 58.31786 24.70013 3424 ft 144 kts 346°
2026-04-29 16:01 58.32750 24.69566 3427 ft 145 kts 346°
2026-04-29 16:01 58.33724 24.69110 3435 ft 145 kts 346°
2026-04-29 16:02 58.34705 24.68648 3434 ft 145 kts 346°
2026-04-29 16:02 58.35688 24.68192 3438 ft 146 kts 346°
2026-04-29 16:02 58.36668 24.67732 3432 ft 145 kts 346°
2026-04-29 16:02 58.37640 24.67284 3441 ft 143 kts 346°
2026-04-29 16:03 58.38605 24.66835 3438 ft 143 kts 346°
2026-04-29 16:03 58.39576 24.66383 3441 ft 144 kts 346°
2026-04-29 16:03 58.40551 24.65928 3441 ft 144 kts 346°
2026-04-29 16:03 58.41531 24.65473 3439 ft 145 kts 346°
2026-04-29 16:04 58.42498 24.65022 3439 ft 144 kts 346°
2026-04-29 16:04 58.43476 24.64563 3437 ft 145 kts 346°
2026-04-29 16:04 58.44465 24.64097 3438 ft 147 kts 345°
2026-04-29 16:04 58.45457 24.63632 3433 ft 146 kts 345°
2026-04-29 16:05 58.46435 24.63175 3443 ft 144 kts 345°
2026-04-29 16:05 58.47414 24.62719 3441 ft 145 kts 346°
2026-04-29 16:05 58.48399 24.62260 3437 ft 145 kts 346°
2026-04-29 16:05 58.49379 24.61797 3441 ft 145 kts 345°
2026-04-29 16:06 58.50356 24.61337 3428 ft 143 kts 345°
2026-04-29 16:06 58.51311 24.60899 3444 ft 142 kts 346°
2026-04-29 16:06 58.52276 24.60447 3436 ft 143 kts 345°
2026-04-29 16:06 58.53245 24.59980 3439 ft 144 kts 345°
2026-04-29 16:07 58.54219 24.59518 3438 ft 143 kts 345°
2026-04-29 16:07 58.55181 24.59067 3432 ft 142 kts 345°
2026-04-29 16:07 58.56139 24.58624 3443 ft 142 kts 345°
2026-04-29 16:07 58.57108 24.58163 3436 ft 145 kts 345°
2026-04-29 16:08 58.58086 24.57704 3430 ft 143 kts 345°
2026-04-29 16:08 58.59048 24.57252 3457 ft 142 kts 346°
2026-04-29 16:08 58.60022 24.56789 3439 ft 144 kts 345°
2026-04-29 16:08 58.60978 24.56334 3431 ft 142 kts 345°
2026-04-29 16:09 58.61938 24.55886 3443 ft 143 kts 345°
2026-04-29 16:09 58.62906 24.55426 3438 ft 143 kts 345°
2026-04-29 16:09 58.63874 24.54974 3440 ft 144 kts 345°
2026-04-29 16:09 58.64840 24.54515 3437 ft 143 kts 346°
2026-04-29 16:10 58.65798 24.54063 3443 ft 141 kts 345°
2026-04-29 16:10 58.66750 24.53608 3445 ft 141 kts 346°
2026-04-29 16:10 58.67701 24.53159 3442 ft 140 kts 345°
2026-04-29 16:10 58.68661 24.52699 3442 ft 143 kts 346°
2026-04-29 16:11 58.69632 24.52245 3438 ft 144 kts 345°
2026-04-29 16:11 58.70601 24.51783 3449 ft 143 kts 345°
2026-04-29 16:11 58.71566 24.51322 3450 ft 142 kts 344°
2026-04-29 16:11 58.72515 24.50871 3443 ft 141 kts 345°
2026-04-29 16:12 58.73485 24.50419 3431 ft 144 kts 345°
2026-04-29 16:12 58.74137 24.50106 3439 ft 142 kts 345°
2026-04-29 16:12 58.75401 24.49503 3438 ft 140 kts 345°
2026-04-29 16:12 58.76351 24.49045 3443 ft 141 kts 345°
2026-04-29 16:13 58.77309 24.48589 3441 ft 142 kts 345°
2026-04-29 16:13 58.78268 24.48132 3447 ft 142 kts 345°
2026-04-29 16:13 58.79227 24.47675 3444 ft 142 kts 345°
2026-04-29 16:13 58.80176 24.47223 3442 ft 140 kts 345°
2026-04-29 16:14 58.81106 24.46781 3449 ft 139 kts 345°
2026-04-29 16:14 58.82041 24.46330 3446 ft 139 kts 346°
2026-04-29 16:14 58.82976 24.45882 3438 ft 138 kts 345°
2026-04-29 16:14 58.83908 24.45436 3437 ft 137 kts 345°
2026-04-29 16:15 58.84836 24.44993 3439 ft 138 kts 345°
2026-04-29 16:15 58.85766 24.44553 3447 ft 138 kts 345°
2026-04-29 16:15 58.86702 24.44100 3441 ft 140 kts 345°
2026-04-29 16:15 58.87645 24.43645 3442 ft 139 kts 345°
2026-04-29 16:16 58.88590 24.43194 3442 ft 140 kts 345°
2026-04-29 16:16 58.89532 24.42742 3441 ft 139 kts 345°
2026-04-29 16:16 58.90460 24.42293 3440 ft 141 kts 345°
2026-04-29 16:16 58.91406 24.41836 3434 ft 139 kts 345°
2026-04-29 16:17 58.92352 24.41383 3435 ft 140 kts 345°
2026-04-29 16:17 58.93299 24.40930 3435 ft 140 kts 346°
2026-04-29 16:17 58.94241 24.40480 3435 ft 139 kts 345°
2026-04-29 16:17 58.95172 24.40028 3440 ft 138 kts 345°
2026-04-29 16:18 58.96105 24.39577 3434 ft 138 kts 345°
2026-04-29 16:18 58.97033 24.39130 3440 ft 137 kts 345°
2026-04-29 16:18 58.97962 24.38682 3442 ft 137 kts 345°
2026-04-29 16:18 58.98875 24.38241 3440 ft 137 kts 345°
2026-04-29 16:19 58.99799 24.37795 3437 ft 136 kts 345°
2026-04-29 16:19 59.00723 24.37351 3431 ft 137 kts 345°
2026-04-29 16:19 59.01644 24.36903 3430 ft 136 kts 345°
2026-04-29 16:19 59.02563 24.36457 3444 ft 138 kts 345°
2026-04-29 16:20 59.03501 24.36003 3433 ft 138 kts 345°
2026-04-29 16:20 59.04428 24.35554 3435 ft 137 kts 346°
2026-04-29 16:20 59.05354 24.35108 3437 ft 137 kts 345°
2026-04-29 16:20 59.06266 24.34663 3435 ft 138 kts 346°
2026-04-29 16:21 59.07205 24.34209 3435 ft 140 kts 345°
2026-04-29 16:21 59.08151 24.33745 3433 ft 141 kts 346°
2026-04-29 16:21 59.09100 24.33289 3442 ft 141 kts 346°
2026-04-29 16:21 59.10050 24.32825 3431 ft 140 kts 346°
2026-04-29 16:22 59.10993 24.32368 3438 ft 140 kts 346°
2026-04-29 16:22 59.11936 24.31911 3440 ft 140 kts 345°
2026-04-29 16:22 59.12876 24.31449 3441 ft 139 kts 346°
2026-04-29 16:22 59.13824 24.30987 3436 ft 141 kts 346°
2026-04-29 16:23 59.14770 24.30527 3434 ft 139 kts 346°
2026-04-29 16:23 59.15705 24.30069 3451 ft 139 kts 346°
2026-04-29 16:23 59.16649 24.29609 3427 ft 139 kts 346°
2026-04-29 16:23 59.17571 24.29160 3429 ft 137 kts 345°
2026-04-29 16:24 59.18508 24.28701 3433 ft 138 kts 346°
2026-04-29 16:24 59.19421 24.28261 3436 ft 137 kts 346°
2026-04-29 16:24 59.20343 24.27805 3442 ft 137 kts 346°
2026-04-29 16:24 59.21270 24.27351 3438 ft 137 kts 346°
2026-04-29 16:25 59.22195 24.26898 3435 ft 137 kts 346°
2026-04-29 16:25 59.23128 24.26441 3439 ft 139 kts 346°
2026-04-29 16:25 59.23750 24.26136 3437 ft 139 kts 345°
2026-04-29 16:25 59.25011 24.25724 3426 ft 139 kts
2026-04-29 16:26 59.25591 24.26293 3436 ft 146 kts 35°
2026-04-29 16:26 59.26075 24.28099 3454 ft 156 kts 68°
2026-04-29 16:26 59.26381 24.30885 3436 ft 158 kts 71°
2026-04-29 16:26 59.26526 24.32307 3439 ft 158 kts 71°
2026-04-29 16:27 59.26744 24.34430 3432 ft 160 kts 72°
2026-04-29 16:27 59.26963 24.36547 3445 ft 158 kts 71°
2026-04-29 16:27 59.27035 24.37231 3437 ft 158 kts 71°
2026-04-29 16:28 59.27100 24.37856 3432 ft 158 kts 71°
2026-04-29 16:28 59.27254 24.39377 3435 ft 158 kts 71°
2026-04-29 16:28 59.27464 24.41470 3444 ft 157 kts 71°
2026-04-29 16:29 59.27681 24.43560 3435 ft 155 kts 68°
2026-04-29 16:29 59.28229 24.45295 3439 ft 149 kts 45°
2026-04-29 16:29 59.28762 24.47067 3440 ft 153 kts 59°
2026-04-29 16:29 59.29154 24.49015 3431 ft 155 kts 63°
2026-04-29 16:30 59.29515 24.51001 3433 ft 155 kts 63°
2026-04-29 16:30 59.29870 24.52968 3446 ft 154 kts 64°
2026-04-29 16:30 59.30221 24.54918 3500 ft 152 kts 63°
2026-04-29 16:30 59.30576 24.56875 3494 ft 153 kts 63°
2026-04-29 16:31 59.30932 24.58856 3491 ft 155 kts 63°
2026-04-29 16:31 59.31293 24.60853 3496 ft 156 kts 63°
2026-04-29 16:31 59.31656 24.62867 3497 ft 156 kts 64°
2026-04-29 16:31 59.32020 24.64885 3496 ft 157 kts 63°
2026-04-29 16:32 59.32379 24.66878 3490 ft 157 kts 63°
2026-04-29 16:32 59.32744 24.68913 3500 ft 156 kts 63°
2026-04-29 16:32 59.33100 24.70893 3492 ft 157 kts 63°
2026-04-29 16:32 59.33463 24.72915 3491 ft 157 kts 63°
2026-04-29 16:33 59.34189 24.76976 3498 ft 157 kts 63°
2026-04-29 16:33 59.34551 24.78994 3489 ft 158 kts 63°
2026-04-29 16:33 59.34908 24.80992 3492 ft 157 kts 63°
2026-04-29 16:34 59.35267 24.83004 3493 ft 156 kts 63°
2026-04-29 16:34 59.35626 24.85022 3498 ft 156 kts 63°
2026-04-29 16:34 59.35983 24.87033 3494 ft 155 kts 63°
2026-04-29 16:34 59.36340 24.89033 3494 ft 155 kts 63°
2026-04-29 16:35 59.36695 24.91035 3497 ft 155 kts 63°
2026-04-29 16:35 59.37049 24.93022 3494 ft 156 kts 63°
2026-04-29 16:35 59.37404 24.95029 3489 ft 156 kts 63°
2026-04-29 16:35 59.37754 24.97010 3372 ft 155 kts 63°
2026-04-29 16:36 59.38097 24.98966 3228 ft 146 kts 63°
2026-04-29 16:36 59.38425 25.00822 3132 ft 142 kts 63°
2026-04-29 16:36 59.38747 25.02645 3032 ft 141 kts 63°
2026-04-29 16:36 59.39067 25.04447 2923 ft 140 kts 63°
2026-04-29 16:37 59.39390 25.06271 2750 ft 143 kts 63°
2026-04-29 16:37 59.39792 25.08035 2540 ft 139 kts 41°
2026-04-29 16:37 59.40587 25.08779 2337 ft 124 kts 356°
2026-04-29 16:37 59.41114 25.08440 2204 ft 121 kts 325°
2026-04-29 16:38 59.41449 25.06526 2198 ft 116 kts 273°
2026-04-29 16:38 59.41359 25.05008 2197 ft 104 kts 275°
2026-04-29 16:38 59.41318 25.03603 2102 ft 105 kts 276°
2026-04-29 16:38 59.41297 25.02189 1962 ft 100 kts 278°
2026-04-29 16:39 59.41287 25.00832 1821 ft 99 kts 278°
2026-04-29 16:39 59.41280 24.99480 1683 ft 99 kts 278°
2026-04-29 16:39 59.41282 24.98127 1536 ft 99 kts 279°
2026-04-29 16:39 59.41285 24.96794 1403 ft 96 kts 279°
2026-04-29 16:40 59.41287 24.95538 1266 ft 84 kts 278°
2026-04-29 16:40 59.41290 24.94495 1073 ft 67 kts 278°
2026-04-29 16:40 59.41294 24.93585 961 ft 68 kts 276°
2026-04-29 16:40 59.41293 24.92681 838 ft 67 kts 274°
2026-04-29 16:41 59.41295 24.91768 745 ft 67 kts 274°
2026-04-29 16:41 59.41299 24.90859 642 ft 65 kts 271°
2026-04-29 16:41 59.41301 24.89968 544 ft 66 kts 270°
2026-04-29 16:41 59.41297 24.89060 437 ft 66 kts 271°
2026-04-29 16:42 59.41308 24.88173 348 ft 64 kts 271°
2026-04-29 16:42 59.41311 24.87284 259 ft 66 kts 269°
2026-04-29 16:42 59.41315 24.86370 177 ft 66 kts 270°
2026-04-29 16:42 59.41317 24.85669 158 ft 34 kts 272°
2026-04-29 16:43 59.41320 24.85295 159 ft 23 kts 270°
2026-04-29 16:43 59.41331 24.85054 157 ft 14 kts 301°
2026-04-29 16:43 59.41387 24.85009 157 ft 12 kts
2026-04-29 16:43 59.41454 24.85003 156 ft 8 kts 354°
2026-04-29 16:44 59.41491 24.84940 156 ft 6 kts 282°
2026-04-29 16:44 59.41495 24.84834 156 ft 9 kts 269°
2026-04-29 16:44 59.41494 24.84725 156 ft 8 kts 270°
2026-04-29 16:44 59.41494 24.84656 156 ft 7 kts 272°